Погода в Джагдачи

Китай     50°25′20″N   124°07′10″E
темп.,
°C
ветер,
м/с
пор.,
м/с
влажн.,
%
обл.,
%
осадки,
мм/ч
давл.,
гПа
погр.,
м
21 июня, пн
пн2123:00+12с118798 0.0 100911
02:00+11сз229397 0.0 101017
05:00+12сз128754 0.0 101145
08:00+20сз125892 0.0 1011521
11:00+25всв014459 0.1 10092144
14:00+22юв116499 0.1 1009170
17:00+24зюз234849 0.0 1008849
20:00+16юз2276100 0.0 100913
22 июня, вт
вт2223:00+16зюз1170100 0.0 101014
02:00+14зсз217821 0.0 100914
05:00+14зсз118395 0.0 101145
08:00+17з127053 0.0 1011165
11:00+26зюз233875 0.0 10092060
14:00+22вюв255856 0.0 1008126
17:00+25ююз354870 0.0 1008795
20:00+20з255788 0.0 1009104
23 июня, ср
ср2323:00+15зсз21735 0.0 101011
02:00+13зсз22825 0.0 101118
05:00+14зсз22813 0.0 101062
08:00+22зсз35525 0.0 1010510
11:00+27з23365 0.0 10081927
14:00+29з13315 0.0 10072693
17:00+25юв3556100 0.0 1006308
20:00+19з24669 0.0 100790
24 июня, чт
чт2423:00+15з11775 0.0 100711
02:00+14зсз22835 0.0 100814
05:00+15зсз12831 0.0 100852
08:00+23зсз23544 0.0 1006462
11:00+29з11360 0.0 10052305
14:00+29ююв233472 0.0 10032828
17:00+25з225679 0.0 100296
20:00+19юз11690 0.0 100311
25 июня, пт
пт2523:00+17зсз22780 0.0 100412
02:00+15зсз11823 0.0 100411
05:00+16зсз11824 0.0 100436
08:00+23зсз245584 0.0 1003515
11:00+28ю1140100 0.0 10021255
14:00+27юв2449100 0.0 10011365
17:00+16сз3994100 2.0 1004334
20:00+15ссз339494 3.5 100456